Temperature
8 8 8 8 7 7 7 7 6 5 5 5 5 5 5 4 5 4 4 4 4 4 4 4 3 3 3 3 3 3 3 3 3 3 3 3 3 3
7 7 7 7 7 7 6 6 6 5 4 5 5 4 4 4 4 4 4 4 4 4 4 3 3 3 3 3 3 3 3 2 2 2 2 2 2 2
7 7 7 7 7 6 6 6 5 5 4 4 4 4 4 4 4 4 4 4 4 3 3 3 3 3 3 3 2 2 2 2 2 2 2 2 2 2
7 7 6 6 6 6 5 5 5 4 4 4 4 4 4 3 3 3 3 3 3 3 3 3 2 2 2 2 2 2 2 2 2 1 1 1 1 1
6 6 6 6 6 5 5 5 4 4 4 4 3 3 3 3 3 3 3 3 3 3 2 2 2 2 2 2 2 2 1 1 1 1 1 1 1 1
6 6 6 5 5 5 5 4 4 4 4 3 3 3 3 3 2 2 2 2 2 2 2 2 2 2 2 2 1 1 1 1 1 1 1 0 0 0
5 5 5 5 5 4 4 4 4 3 3 3 3 3 2 2 2 2 1 2 2 2 2 2 2 2 2 1 1 1 1 0 0 0 0 0 0 0
5 5 5 4 4 4 4 3 3 3 3 3 2 2 2 2 1 1 1 1 1 1 1 1 1 1 1 1 1 0 0 0 0 0 -0 0 -0 -0
4 4 4 4 4 3 3 3 3 3 3 2 2 2 2 1 1 1 1 1 1 1 1 1 1 1 1 0 0 0 0 -0 -0 -0 -0 -0 -0 -0
4 4 4 3 3 3 3 3 3 3 2 2 2 2 2 1 1 1 1 0 0 0 0 0 1 1 0 0 0 -0 -0 -0 -0 -0 -0 -0 -1 -1
3 3 3 3 3 2 2 3 2 2 2 2 2 1 1 1 1 0 0 -0 0 0 0 -0 0 0 0 0 0 -0 -0 -0 -0 -1 -1 -1 -1 -1
3 3 3 2 2 2 2 2 2 2 2 1 1 1 1 1 1 1 0 -0 -0 -0 -0 -0 -0 -1 -0 -0 -0 -0 -0 -0 -1 -1 -1 -1 -1 -1
2 2 2 2 2 2 2 2 1 1 1 1 1 1 1 1 1 0 0 -0 -0 -0 -0 -1 -1 -1 -1 -1 -0 -0 -0 -0 -1 -1 -1 -1 -1 -1
2 2 2 1 1 1 1 1 1 1 1 0 0 0 0 0 0 0 0 -0 -0 -0 -0 -1 -1 -1 -1 -1 -1 -0 -0 -1 -1 -1 -1 -1 -1 -1
1 1 1 1 1 1 1 1 1 0 0 -0 -0 -0 -0 -0 -0 0 0 -0 -0 -0 -0 -1 -1 -1 -1 -1 -1 -1 -1 -1 -1 -1 -1 -1 -1 -1
1 1 1 1 1 1 1 0 0 -0 -0 -0 -1 -0 -0 -0 -0 -0 -0 -0 -1 -0 -0 -1 -1 -1 -1 -1 -1 -1 -1 -1 -1 -1 -1 -1 -1 -2
0 0 0 0 0 0 0 -0 -0 -0 -1 -1 -1 -1 -1 -1 -0 -1 -1 -1 -1 -1 -0 -0 -1 -1 -1 -1 -1 -1 -2 -1 -1 -2 -1 -1 -1 -1
-0 -0 -0 -0 -0 -0 -1 -1 -1 -1 -1 -1 -1 -1 -1 -1 -1 -1 -1 -1 -1 -1 -1 -1 -1 -1 -1 -1 -1 -2 -2 -2 -2 -2 -2 -2 -1 -1
-1 -1 -1 -1 -1 -1 -1 -1 -1 -1 -1 -1 -1 -1 -1 -1 -1 -1 -1 -1 -1 -1 -1 -1 -1 -1 -2 -2 -2 -2 -2 -2 -2 -2 -2 -2 -2 -1
-1 -1 -1 -1 -1 -1 -1 -1 -1 -1 -1 -1 -1 -1 -1 -1 -1 -1 -1 -1 -1 -1 -1 -1 -1 -2 -2 -2 -2 -2 -2 -2 -2 -2 -2 -2 -2 -2
-2 -2 -2 -2 -2 -1 -1 -1 -1 -1 -2 -2 -2 -2 -2 -2 -2 -2 -2 -1 -2 -1 -1 -1 -2 -2 -2 -2 -2 -2 -2 -2 -2 -2 -2 -2 -2 -2
-2 -2 -2 -2 -2 -2 -2 -2 -2 -2 -2 -2 -2 -2 -2 -2 -2 -2 -2 -2 -2 -2 -2 -2 -2 -2 -2 -2 -3 -2 -2 -2 -2 -2 -2 -2 -3 -3
-2 -2 -2 -2 -2 -2 -2 -2 -2 -2 -2 -2 -2 -2 -2 -2 -2 -2 -2 -2 -2 -2 -2 -2 -2 -2 -2 -2 -3 -3 -2 -2 -2 -2 -2 -2 -2 -2
Wind_Speed
3 3 2 2 2 2 2 3 3 2 2 2 0 1 2 3 4 6 6 8 11 11 12 12 12 13 13 13 13 13 14 15 15 16 16 17 18 18
3 3 3 2 2 2 2 2 2 3 3 2 2 2 3 4 6 7 6 9 10 11 11 12 12 12 13 12 12 13 14 15 15 16 17 17 18 18
3 4 3 3 3 2 2 1 1 2 3 3 2 2 2 3 4 5 6 6 7 10 11 12 12 12 12 12 12 13 14 15 15 16 17 17 18 18
4 4 4 3 3 2 2 2 2 2 2 3 3 2 3 3 3 4 5 6 6 9 11 11 12 12 12 12 12 13 14 15 15 16 17 17 18 18
4 4 4 4 4 3 3 3 2 1 2 2 3 2 3 3 3 4 4 4 6 8 9 10 11 11 12 12 13 13 14 15 15 16 16 17 17 17
3 4 4 5 4 4 3 3 2 2 2 2 2 2 2 2 2 3 4 4 4 6 8 9 9 11 12 13 13 13 14 15 15 15 16 16 16 17
2 3 3 3 4 3 3 3 3 2 2 2 2 3 3 3 3 3 5 5 4 3 5 5 5 6 8 11 11 13 14 15 15 15 16 16 16 17
3 2 2 2 3 2 2 2 2 3 3 2 3 3 4 3 3 4 4 5 5 3 4 6 4 5 6 6 10 13 13 14 15 16 16 16 16 16
3 3 2 2 2 2 1 1 1 2 3 3 4 4 4 4 3 4 4 5 5 4 5 6 4 5 6 7 11 13 13 14 15 15 15 16 16 16
3 3 3 2 2 2 2 0 0 1 2 1 2 3 3 3 3 4 4 5 4 3 3 5 5 5 6 7 10 12 13 14 14 15 16 16 16 16
2 2 3 3 3 2 2 1 0 1 3 3 3 3 4 5 5 2 3 3 5 4 2 2 4 5 5 5 7 10 13 14 15 16 16 16 16 15
1 2 3 3 2 2 2 2 1 1 1 2 2 3 3 4 5 2 2 3 4 3 2 2 3 4 4 3 4 6 9 13 15 15 16 16 16 11
1 1 2 2 2 2 2 2 2 1 1 0 1 1 2 2 2 3 2 2 3 4 3 3 3 3 3 5 5 5 6 7 9 11 13 15 15 11
2 2 1 2 2 2 1 1 1 1 1 0 1 1 2 2 2 3 3 3 3 4 4 3 3 3 4 5 5 5 6 6 6 7 8 12 13 13
1 2 1 2 1 1 1 1 1 1 1 0 1 2 2 2 2 2 3 3 3 4 4 4 3 3 3 4 5 5 6 6 5 6 7 7 6 7
1 1 2 2 1 1 1 1 0 1 1 1 1 1 2 2 2 2 3 3 3 4 4 3 3 3 3 4 4 5 5 5 6 7 7 6 6 7
1 1 1 1 1 1 1 0 0 0 0 0 0 1 2 2 3 3 2 2 2 3 4 4 4 3 2 3 3 5 5 5 5 6 6 6 6 6
2 2 1 1 2 1 1 0 0 1 1 1 1 1 2 2 3 3 3 2 2 3 4 4 4 4 3 2 2 4 4 5 6 6 5 5 6 6
1 1 2 2 2 1 1 1 1 1 1 1 1 2 2 2 2 2 2 2 2 3 3 3 3 3 3 4 4 3 3 5 6 5 5 4 5 6
1 2 2 2 2 2 1 1 1 1 1 1 1 2 2 2 2 2 2 2 2 3 3 3 3 3 2 3 4 5 6 5 4 5 5 4 4 7
1 1 1 1 1 1 1 1 1 1 1 1 2 2 2 1 2 2 2 2 2 2 3 3 4 5 3 2 3 4 5 7 6 4 5 5 5 4
1 1 1 1 1 1 1 1 1 1 1 2 2 2 1 1 2 2 2 1 2 2 3 3 3 3 2 2 3 5 6 6 8 8 7 5 3 3
1 1 1 1 1 1 1 1 1 1 2 2 2 1 1 1 1 1 1 1 1 2 2 3 3 3 2 3 3 4 6 7 6 6 6 10 9 8
Wind_Direction
173 163 167 168 155 151 154 161 174 226 262 248 312 301 349 336 322 323 318 323 328 330 330 332 333 333 333 334 334 335 335 335 334 332 331 330 330 330
170 165 175 167 157 155 168 180 183 194 236 259 277 286 315 321 317 322 316 321 324 324 327 329 330 332 333 334 335 335 335 335 333 331 330 331 330 330
173 179 190 172 167 168 168 177 193 195 241 278 295 301 311 311 312 315 319 317 315 319 322 324 329 331 334 334 334 334 333 333 332 332 332 330 331 330
186 183 188 178 171 172 175 188 202 216 225 261 292 303 298 294 299 307 316 318 318 315 317 323 328 330 332 330 332 334 334 333 332 331 331 330 330 330
184 186 190 177 183 184 181 193 205 225 218 239 279 293 296 297 310 308 311 315 321 319 320 322 323 327 331 332 332 333 333 332 331 331 330 330 330 330
183 188 188 185 188 185 192 196 199 206 209 231 266 284 292 298 311 314 320 319 320 319 319 318 319 326 328 328 328 330 331 332 332 332 332 331 331 330
183 187 180 179 186 194 205 199 191 198 207 232 255 284 287 306 305 309 312 316 316 313 313 317 324 326 326 324 325 327 329 331 332 333 333 333 331 329
179 179 169 165 179 208 242 234 210 205 214 225 255 260 278 292 303 305 313 318 312 313 319 310 315 313 313 319 322 326 328 330 332 333 334 333 331 330
184 178 184 178 170 166 222 319 331 294 250 234 236 253 266 277 289 299 305 304 296 298 314 303 305 303 310 315 321 327 330 331 334 335 335 335 335 333
188 187 181 183 183 177 186 197 350 348 298 269 235 254 267 279 272 274 286 298 297 302 314 297 302 302 307 310 316 327 333 335 336 336 336 336 337 337
195 183 180 184 195 188 161 155 51 353 355 340 315 310 312 317 317 314 311 312 311 310 320 302 303 310 303 299 316 330 333 335 338 339 340 340 340 339
190 179 181 185 190 188 174 170 195 268 312 345 351 344 344 339 333 317 284 294 303 303 301 318 310 326 318 297 311 332 333 332 334 337 340 342 342 343
198 199 189 186 194 212 214 196 216 231 218 251 331 338 342 347 342 338 321 281 282 284 289 314 306 309 297 304 308 315 326 326 330 333 336 339 342 344
206 204 195 191 193 209 218 203 153 92 124 103 343 328 328 331 329 334 335 325 286 275 283 289 284 293 302 304 306 313 317 325 332 331 335 335 338 338
190 188 186 177 177 179 175 143 112 124 143 255 287 304 310 306 311 323 333 336 330 319 309 297 286 285 285 291 301 308 314 317 330 334 335 335 332 332
117 156 158 150 122 112 119 112 142 182 205 231 275 303 322 322 318 322 322 328 332 328 332 329 319 289 286 290 294 303 310 311 322 329 329 330 332 332
128 112 110 137 132 115 86 94 48 24 340 329 304 314 318 321 322 329 324 326 324 322 328 329 332 318 278 277 300 304 309 313 317 329 331 330 326 330
124 153 172 182 178 182 189 227 282 275 278 283 284 288 296 310 324 330 331 329 328 327 326 328 335 335 338 327 272 295 311 314 322 328 331 329 325 331
131 179 204 206 204 205 206 223 258 275 278 271 281 287 294 309 316 320 325 332 333 329 329 330 338 344 343 331 319 322 315 318 324 327 326 321 313 319
160 189 217 220 209 204 208 232 251 273 283 282 285 288 294 303 310 313 314 319 323 330 337 343 345 339 314 298 300 310 323 315 317 320 321 315 303 308
208 208 215 223 222 209 212 232 239 256 279 283 280 290 299 307 307 306 309 313 325 337 337 328 311 313 302 309 317 319 323 329 324 312 316 322 325 334
232 230 223 215 222 214 204 216 232 260 272 281 285 289 294 298 297 298 309 321 334 334 323 320 325 336 352 350 331 322 326 333 339 341 338 326 320 332
262 253 231 210 203 209 213 217 221 239 257 271 280 288 290 292 301 305 310 324 337 341 339 339 347 356 349 338 331 329 334 337 342 349 348 346 337 316
Height
1492 1493 1494 1495 1496 1497 1498 1499 1499 1498 1498 1498 1499 1498 1498 1497 1495 1494 1492 1490 1487 1484 1481 1479 1476 1473 1470 1468 1465 1462 1460 1457 1454 1451 1448 1445 1442 1438
1488 1490 1491 1492 1493 1494 1495 1495 1496 1496 1495 1494 1495 1495 1494 1493 1492 1490 1488 1486 1483 1481 1478 1475 1473 1470 1467 1464 1462 1459 1456 1453 1450 1447 1444 1441 1437 1434
1485 1487 1488 1488 1489 1490 1491 1492 1492 1493 1491 1491 1492 1491 1490 1489 1488 1487 1485 1482 1480 1477 1474 1472 1469 1467 1464 1461 1459 1456 1453 1450 1447 1444 1440 1437 1433 1430
1482 1483 1484 1485 1486 1487 1487 1488 1489 1489 1489 1487 1487 1487 1487 1486 1484 1482 1481 1479 1476 1473 1471 1468 1466 1463 1461 1458 1455 1452 1449 1446 1443 1440 1436 1433 1429 1426
1479 1480 1481 1481 1482 1483 1484 1484 1485 1486 1486 1485 1483 1483 1482 1482 1480 1478 1477 1475 1472 1470 1467 1465 1463 1460 1458 1455 1452 1449 1446 1443 1439 1436 1432 1429 1425 1422
1475 1477 1477 1478 1479 1480 1480 1481 1482 1482 1482 1481 1480 1479 1478 1478 1477 1474 1472 1471 1469 1467 1464 1462 1459 1457 1454 1452 1449 1446 1442 1439 1436 1432 1429 1425 1422 1418
1472 1473 1474 1475 1476 1477 1477 1478 1478 1478 1478 1477 1477 1476 1475 1474 1473 1471 1469 1466 1465 1463 1460 1458 1456 1453 1451 1448 1445 1442 1439 1436 1433 1429 1426 1422 1418 1414
1469 1470 1471 1472 1473 1474 1475 1475 1475 1475 1474 1474 1473 1472 1471 1471 1470 1468 1466 1463 1460 1460 1457 1454 1453 1450 1447 1445 1442 1439 1436 1433 1430 1426 1422 1419 1415 1411
1466 1467 1468 1469 1470 1470 1471 1472 1472 1472 1472 1471 1470 1469 1468 1467 1466 1464 1463 1461 1459 1457 1454 1450 1449 1446 1444 1442 1439 1437 1433 1430 1427 1423 1419 1416 1412 1408
1463 1464 1465 1466 1466 1467 1468 1468 1468 1468 1468 1468 1467 1466 1466 1465 1464 1462 1460 1458 1456 1454 1453 1448 1445 1443 1441 1439 1437 1434 1431 1428 1424 1421 1417 1413 1410 1406
1460 1461 1462 1462 1463 1464 1465 1464 1464 1464 1465 1465 1464 1464 1463 1462 1461 1459 1457 1455 1452 1451 1450 1447 1443 1440 1438 1436 1434 1431 1428 1425 1422 1418 1415 1411 1407 1404
1457 1458 1459 1460 1460 1461 1461 1461 1461 1461 1461 1461 1461 1460 1460 1459 1458 1457 1455 1453 1450 1448 1446 1445 1442 1439 1435 1433 1431 1429 1426 1423 1420 1416 1412 1409 1405 1402
1454 1455 1456 1457 1458 1458 1459 1459 1459 1459 1458 1458 1457 1457 1456 1455 1454 1454 1452 1451 1449 1446 1445 1443 1440 1438 1436 1432 1429 1427 1424 1421 1417 1414 1411 1407 1404 1400
1451 1452 1453 1454 1455 1456 1456 1456 1457 1456 1456 1455 1454 1453 1453 1452 1451 1450 1449 1448 1446 1444 1442 1441 1438 1436 1434 1430 1427 1424 1422 1419 1416 1412 1409 1406 1402 1399
1449 1449 1450 1451 1452 1453 1453 1453 1453 1453 1453 1453 1452 1451 1451 1450 1449 1448 1446 1445 1443 1441 1440 1438 1436 1434 1432 1429 1426 1423 1420 1417 1414 1411 1407 1404 1400 1397
1446 1447 1448 1448 1449 1450 1450 1450 1451 1451 1451 1451 1450 1449 1449 1448 1447 1445 1444 1442 1440 1439 1438 1436 1434 1433 1430 1428 1425 1422 1420 1417 1413 1410 1406 1403 1400 1397
1444 1444 1445 1445 1446 1446 1447 1447 1448 1448 1448 1448 1448 1447 1446 1446 1445 1443 1442 1440 1439 1437 1435 1434 1432 1431 1429 1427 1424 1421 1419 1416 1413 1409 1405 1402 1399 1396
1441 1441 1442 1442 1443 1443 1444 1445 1445 1446 1446 1446 1446 1445 1444 1444 1443 1441 1440 1438 1437 1435 1434 1432 1430 1428 1427 1425 1424 1420 1418 1415 1412 1409 1405 1401 1398 1396
1439 1439 1440 1440 1441 1442 1442 1443 1443 1444 1444 1444 1443 1443 1443 1442 1441 1439 1438 1437 1435 1434 1432 1431 1429 1427 1425 1423 1422 1420 1417 1414 1411 1408 1405 1402 1398 1395
1436 1437 1437 1438 1439 1440 1440 1441 1442 1442 1442 1442 1441 1441 1440 1440 1439 1438 1436 1435 1434 1432 1431 1430 1429 1427 1425 1424 1421 1419 1417 1414 1410 1407 1404 1402 1399 1396
1434 1435 1436 1436 1437 1437 1438 1439 1439 1440 1440 1440 1439 1439 1438 1438 1437 1436 1435 1434 1433 1432 1430 1429 1428 1427 1425 1423 1421 1418 1416 1414 1411 1408 1404 1401 1397 1395
1432 1433 1434 1434 1435 1435 1436 1437 1437 1437 1438 1438 1437 1437 1437 1436 1436 1435 1434 1433 1432 1431 1430 1428 1427 1426 1424 1422 1420 1418 1415 1413 1411 1408 1405 1402 1399 1395
1431 1431 1432 1432 1433 1434 1434 1435 1435 1435 1436 1436 1435 1435 1435 1435 1434 1434 1433 1432 1431 1430 1429 1427 1426 1425 1423 1422 1420 1418 1415 1413 1410 1408 1406 1403 1401 1398